Weather History for Mammoth, CA

Change the Weather History Date:

Tuesday, May 28, 2013

  Actual Average Record
Temperature  
Mean Temperature 56 °F -  
Max Temperature 66 °F 66 °F 82 °F (2003)
Min Temperature 46 °F 54 °F 28 °F (2012)
Degree Days  
Heating Degree Days 9    
Growing Degree Days 6 (Base 50)    
Moisture  
Dew Point 28 °F    
Average Humidity 38    
Maximum Humidity 62    
Minimum Humidity 16    
Precipitation  
Precipitation 0.00 in - - ()
Sea Level Pressure  
Sea Level Pressure 30.00 in    
Wind  
Wind Speed 16 mph (West)    
Max Wind Speed 26 mph    
Max Gust Speed 38 mph    
Visibility 10 miles    
Events      
Averages and records for this station are not official NWS values.
T = Trace of Precipitation, MM = Missing Value Source: NWS Daily Summary

Daily Weather History Graph

Daily Weather History Graph

Search for Another Location

Airport:

Trip Planner

Search our weather history database for the weather conditions in past years. The results will help you decide how hot, cold, wet, or windy it might be!

Date:

Astronomy

May. 28, 2013 Rise Set
Actual Time 5:37 AM PDT 8:08 PM PDT
Civil Twilight 5:06 AM PDT 8:39 PM PDT
Nautical Twilight 4:29 AM PDT 9:16 PM PDT
Astronomical Twilight 3:47 AM PDT 9:58 PM PDT
Moon 11:38 PM PDT (5/28) 9:29 AM PDT (5/28)
Length of Visible Light 15h 32m
Length of Day
14h 31m
Waning Gibbous, 82% of the Moon is Illuminated
May 28
Waning Gibbous
May 31
Last Quarter
Jun 8
New
Jun 16
First Quarter
Jun 23
Full

Hourly Weather History & Observations

Time (PDT) Temp. Windchill Dew Point Humidity Pressure Visibility Wind Dir Wind Speed Gust Speed Precip Events Conditions
12:15 AM 53.6 °F - 30.2 °F 41% 30.03 in 10.0 mi West 20.7 mph 29.9 mph N/A   Overcast
12:35 AM 55.4 °F - 28.4 °F 36% 30.02 in 10.0 mi WSW 20.7 mph 32.2 mph N/A   Overcast
12:55 AM 55.4 °F - 30.2 °F 38% 30.02 in 10.0 mi West 17.3 mph 31.1 mph N/A   Mostly Cloudy
1:15 AM 55.4 °F - 30.2 °F 38% 30.00 in 10.0 mi West 11.5 mph 18.4 mph N/A   Scattered Clouds
1:35 AM 51.8 °F - 32.0 °F 47% 30.02 in 10.0 mi WNW 20.7 mph 28.8 mph N/A   Scattered Clouds
1:55 AM 50.0 °F - 33.8 °F 54% 30.01 in 10.0 mi West 11.5 mph - N/A   Mostly Cloudy
2:15 AM 51.8 °F - 32.0 °F 47% 30.00 in 10.0 mi West 9.2 mph 21.9 mph N/A   Mostly Cloudy
2:35 AM 48.2 °F - 33.8 °F 58% 29.98 in 10.0 mi NNW 9.2 mph 28.8 mph N/A   Mostly Cloudy
2:55 AM 48.2 °F - 33.8 °F 58% 29.99 in 10.0 mi NW 11.5 mph 20.7 mph N/A   Overcast
3:15 AM 48.2 °F - 33.8 °F 58% 29.99 in 10.0 mi WNW 13.8 mph 19.6 mph N/A   Overcast
3:35 AM 50.0 °F - 32.0 °F 50% 29.98 in 10.0 mi WSW 15.0 mph 28.8 mph N/A   Mostly Cloudy
3:55 AM 50.0 °F - 32.0 °F 50% 29.95 in 10.0 mi WSW 19.6 mph 27.6 mph N/A   Mostly Cloudy
4:15 AM 50.0 °F - 32.0 °F 50% 29.96 in 10.0 mi West 18.4 mph 33.4 mph N/A   Mostly Cloudy
4:35 AM 50.0 °F - 32.0 °F 50% 29.96 in 10.0 mi NW 9.2 mph 24.2 mph N/A   Overcast
4:55 AM 48.2 °F - 33.8 °F 58% 29.97 in 10.0 mi NNW 9.2 mph 17.3 mph N/A   Overcast
5:15 AM 50.0 °F - 32.0 °F 50% 29.96 in 10.0 mi WSW 13.8 mph 21.9 mph N/A   Overcast
5:35 AM 50.0 °F - 32.0 °F 50% 29.95 in 10.0 mi WNW 12.7 mph 25.3 mph N/A   Overcast
5:55 AM 48.2 °F - 33.8 °F 58% 29.96 in 10.0 mi NW 10.4 mph 20.7 mph N/A   Overcast
6:15 AM 50.0 °F - 32.0 °F 50% 29.96 in 10.0 mi West 18.4 mph 26.5 mph N/A   Mostly Cloudy
6:35 AM 48.2 °F - 35.6 °F 62% 29.97 in 10.0 mi WNW 16.1 mph 24.2 mph N/A   Mostly Cloudy
6:55 AM 48.2 °F - 35.6 °F 62% 29.97 in 10.0 mi West 19.6 mph 25.3 mph N/A   Scattered Clouds
7:15 AM 51.8 °F - 32.0 °F 47% 29.98 in 10.0 mi West 19.6 mph 29.9 mph N/A   Clear
7:35 AM 51.8 °F - 32.0 °F 47% 29.97 in 10.0 mi West 13.8 mph 23.0 mph N/A   Clear
7:55 AM 53.6 °F - 37.4 °F 54% 29.97 in 10.0 mi NNW 13.8 mph - N/A   Clear
8:15 AM 53.6 °F - 33.8 °F 47% 29.97 in 10.0 mi WNW 12.7 mph 24.2 mph N/A   Scattered Clouds
8:35 AM 53.6 °F - 32.0 °F 44% 29.97 in 10.0 mi NW 20.7 mph 28.8 mph N/A   Clear
8:55 AM 55.4 °F - 28.4 °F 36% 29.97 in 10.0 mi WNW 19.6 mph 26.5 mph N/A   Clear
9:15 AM 57.2 °F - 23.0 °F 27% 29.98 in 10.0 mi WNW 17.3 mph 29.9 mph N/A   Clear
9:35 AM 59.0 °F - 17.6 °F 20% 29.99 in 10.0 mi WNW 11.5 mph 33.4 mph N/A   Clear
9:55 AM 59.0 °F - 23.0 °F 25% 29.99 in 10.0 mi WNW 19.6 mph 26.5 mph N/A   Clear
10:15 AM 59.0 °F - 19.4 °F 22% 30.00 in 10.0 mi West 19.6 mph 31.1 mph N/A   Clear
10:35 AM 59.0 °F - 21.2 °F 23% 30.00 in 10.0 mi West 19.6 mph 26.5 mph N/A   Clear
10:55 AM 59.0 °F - 21.2 °F 23% 30.00 in 10.0 mi West 18.4 mph 25.3 mph N/A   Clear
11:15 AM 60.8 °F - 21.2 °F 22% 30.00 in 10.0 mi West 18.4 mph 24.2 mph N/A   Clear
11:35 AM 60.8 °F - 21.2 °F 22% 29.99 in 10.0 mi West 17.3 mph 28.8 mph N/A   Clear
11:55 AM 62.6 °F - 19.4 °F 19% 29.99 in 10.0 mi WSW 17.3 mph 32.2 mph N/A   Clear
12:15 PM 62.6 °F - 19.4 °F 19% 29.99 in 10.0 mi West 19.6 mph 27.6 mph N/A   Clear
12:35 PM 62.6 °F - 19.4 °F 19% 29.99 in 10.0 mi WSW 20.7 mph 33.4 mph N/A   Clear
12:55 PM 62.6 °F - 17.6 °F 18% 29.99 in 10.0 mi WSW 26.5 mph 32.2 mph N/A   Clear
1:15 PM 64.4 °F - 17.6 °F 16% 29.99 in 10.0 mi West 20.7 mph 32.2 mph N/A   Clear
1:35 PM 64.4 °F - 19.4 °F 18% 29.99 in 10.0 mi WSW 24.2 mph 34.5 mph N/A   Clear
1:55 PM 64.4 °F - 19.4 °F 18% 29.99 in 10.0 mi WSW 23.0 mph 33.4 mph N/A   Clear
2:15 PM 64.4 °F - 21.2 °F 19% 29.99 in 10.0 mi WSW 21.9 mph 38.0 mph N/A   Clear
2:35 PM 66.2 °F - 23.0 °F 19% 29.99 in 10.0 mi WSW 20.7 mph 29.9 mph N/A   Clear
2:55 PM 66.2 °F - 21.2 °F 18% 29.99 in 10.0 mi WSW 19.6 mph 28.8 mph N/A   Clear
3:15 PM 66.2 °F - 23.0 °F 19% 30.00 in 10.0 mi WSW 24.2 mph 29.9 mph N/A   Clear
3:35 PM 64.4 °F - 23.0 °F 21% 29.99 in 10.0 mi West 16.1 mph 31.1 mph N/A   Clear
3:55 PM 64.4 °F - 19.4 °F 18% 29.99 in 10.0 mi WSW 18.4 mph 29.9 mph N/A   Clear
4:15 PM 66.2 °F - 21.2 °F 18% 30.00 in 10.0 mi West 19.6 mph 24.2 mph N/A   Clear
4:35 PM 66.2 °F - 21.2 °F 18% 30.00 in 10.0 mi WSW 15.0 mph 27.6 mph N/A   Clear
4:55 PM 64.4 °F - 21.2 °F 19% 30.00 in 10.0 mi West 17.3 mph 23.0 mph N/A   Clear
5:15 PM 64.4 °F - 23.0 °F 21% 30.00 in 10.0 mi West 18.4 mph 24.2 mph N/A   Clear
5:35 PM 64.4 °F - 21.2 °F 19% 30.00 in 10.0 mi WSW 18.4 mph 24.2 mph N/A   Clear
5:55 PM 62.6 °F - 21.2 °F 20% 30.00 in 10.0 mi WSW 12.7 mph 21.9 mph N/A   Scattered Clouds
6:15 PM 64.4 °F - 19.4 °F 18% 30.00 in 10.0 mi West 12.7 mph 19.6 mph N/A   Clear
6:35 PM 62.6 °F - 23.0 °F 22% 30.00 in 10.0 mi West 4.6 mph 19.6 mph N/A   Clear
6:55 PM 60.8 °F - 23.0 °F 23% 30.00 in 10.0 mi West 15.0 mph 19.6 mph N/A   Clear
7:15 PM 60.8 °F - 24.8 °F 25% 30.01 in 10.0 mi WNW 15.0 mph 20.7 mph N/A   Clear
7:35 PM 59.0 °F - 26.6 °F 29% 30.01 in 10.0 mi NW 9.2 mph - N/A   Clear
7:55 PM 55.4 °F - 35.6 °F 47% 30.01 in 10.0 mi WNW 15.0 mph 20.7 mph N/A   Clear
8:15 PM 53.6 °F - 35.6 °F 51% 30.01 in 10.0 mi WNW 13.8 mph - N/A   Clear
8:35 PM 51.8 °F - 35.6 °F 54% 30.01 in 10.0 mi West 11.5 mph - N/A   Clear
8:55 PM 50.0 °F - 35.6 °F 58% 30.01 in 10.0 mi West 6.9 mph - N/A   Clear
9:15 PM 50.0 °F - 35.6 °F 58% 30.02 in 10.0 mi West 6.9 mph - N/A   Clear
9:35 PM 48.2 °F - 33.8 °F 58% 30.03 in 10.0 mi West 8.1 mph - N/A   Clear
9:55 PM 48.2 °F - 33.8 °F 58% 30.04 in 10.0 mi West 5.8 mph - N/A   Clear
10:15 PM 48.2 °F - 33.8 °F 58% 30.04 in 10.0 mi West 6.9 mph - N/A   Clear
10:35 PM 48.2 °F - 32.0 °F 54% 30.04 in 10.0 mi West 8.1 mph - N/A   Clear
10:55 PM 46.4 °F 42.9 °F 33.8 °F 62% 30.04 in 10.0 mi West 6.9 mph - N/A   Clear
11:15 PM 48.2 °F - 33.8 °F 58% 30.04 in 10.0 mi WSW 10.4 mph - N/A   Clear
11:35 PM 46.4 °F 45.2 °F 33.8 °F 62% 30.04 in 10.0 mi WNW 3.5 mph - N/A   Clear
11:55 PM 46.4 °F - 33.8 °F 62% 30.02 in 10.0 mi Calm Calm - N/A   Clear